Location: Buckeye Ditch
(40.9104°N, 122.9517°W)
Time: 12:33:40
(UTC+00:00)

Tiros 1 despin weight - Pass Details

Date: 25 May 2025
Orbit: 563 x 601 km, 48.2° (Epoch: 22 June)

Event Time Altitude Azimuth Distance (km) Brightness Sun altitude
Rises 10:11:25 0° 267° (W) 2,800 - -21.8°
Reaches altitude 10° 10:13:48 10° 275° (W) 1,908 - -21.6°
Exits shadow 10:15:33 22° 288° (WNW) 1,315 ? -21.4°
Maximum altitude 10:17:56 40° 345° (NNW) 884 ? -21.2°
Drops below altitude 10° 10:22:07 10° 56° (NE) 1,932 ? -20.7°
Sets 10:24:32 0° 64° (ENE) 2,840 ? -20.5°
